Decatur, AL

12:43 AM CDT on August 26, 2016 (GMT -0500)
Pryor Regional

Weather History for KDCU - April, 2013

Change the Weather History Date:

Thursday, April 18, 2013

  Actual Average Record
Temperature  
Mean Temperature 72 °F -  
Max Temperature 80 °F 74 °F 91 °F (2006)
Min Temperature 64 °F 48 °F 34 °F (1997)
Cooling Degree Days 7    
Growing Degree Days 22 (Base 50)    
Moisture  
Dew Point 62 °F    
Average Humidity 71    
Maximum Humidity 93    
Minimum Humidity 52    
Precipitation  
Precipitation 0.00 in - - ()
Sea Level Pressure  
Sea Level Pressure 29.87 in    
Wind  
Wind Speed 13 mph (SSE)    
Max Wind Speed 22 mph    
Max Gust Speed 37 mph    
Visibility 10 miles    
Events Rain    
Averages and records for this station are not official NWS values.
T = Trace of Precipitation, MM = Missing Value Source: NWS Daily Summary

Daily Weather History Graph

Daily Weather History Graph

Search for Another Location

Airport or City:

Trip Planner

Search our weather history database for the weather conditions in past years. The results will help you decide how hot, cold, wet, or windy it might be!

Date:

Astronomy

Apr. 18, 2013 Rise Set
Actual Time 6:12 AM CDT 7:22 PM CDT
Civil Twilight 5:46 AM CDT 7:48 PM CDT
Nautical Twilight 5:14 AM CDT 8:19 PM CDT
Astronomical Twilight 4:42 AM CDT 8:52 PM CDT
Moon 12:26 PM CDT (4/18) 1:33 AM CDT (4/18)
Length of Visible Light 14h 02m
Length of Day
13h 10m
First Quarter, 52% of the Moon is Illuminated
Apr 18
First Quarter
Apr 25
Full
May 2
Last Quarter
May 9
New
May 17
First Quarter

Hourly Weather History & Observations

Time (CDT) Temp. Heat Index Dew Point Humidity Pressure Visibility Wind Dir Wind Speed Gust Speed Precip Events Conditions
12:53 AM 70.0 °F - 64.0 °F 81% 29.98 in 10.0 mi SSE 10.4 mph - N/A   Clear
1:53 AM 66.0 °F - 63.0 °F 90% 29.97 in 10.0 mi SSE 6.9 mph - N/A   Clear
2:53 AM 68.0 °F - 64.0 °F 87% 29.95 in 10.0 mi South 9.2 mph - N/A   Clear
3:53 AM 68.0 °F - 64.0 °F 87% 29.94 in 10.0 mi South 10.4 mph - N/A   Clear
4:53 AM 66.0 °F - 63.0 °F 90% 29.93 in 10.0 mi SSE 8.1 mph - N/A   Clear
5:53 AM 64.0 °F - 62.1 °F 93% 29.94 in 10.0 mi SSE 8.1 mph - N/A   Clear
6:53 AM 66.0 °F - 60.1 °F 81% 29.97 in 10.0 mi South 12.7 mph - N/A   Clear
7:53 AM 68.0 °F - 61.0 °F 78% 29.98 in 10.0 mi SSE 12.7 mph - N/A   Clear
8:53 AM 69.1 °F - 61.0 °F 75% 29.98 in 10.0 mi SSE 16.1 mph - N/A   Clear
9:53 AM 72.0 °F - 63.0 °F 73% 29.97 in 10.0 mi South 19.6 mph 27.6 mph N/A   Clear
10:53 AM 75.0 °F - 64.0 °F 69% 29.95 in 10.0 mi South 20.7 mph 25.3 mph N/A   Partly Cloudy
11:53 AM 73.9 °F - 63.0 °F 68% 29.93 in 10.0 mi South 17.3 mph - N/A   Partly Cloudy
12:53 PM 75.9 °F - 63.0 °F 64% 29.90 in 10.0 mi SSE 18.4 mph 24.2 mph N/A   Scattered Clouds
1:53 PM 78.1 °F - 63.0 °F 60% 29.89 in 10.0 mi SSE 16.1 mph 26.5 mph N/A   Partly Cloudy
2:53 PM 80.1 °F 81.1 °F 61.0 °F 52% 29.86 in 10.0 mi South 18.4 mph 26.5 mph N/A   Partly Cloudy
3:53 PM 77.0 °F - 60.1 °F 56% 29.84 in 10.0 mi South 13.8 mph 25.3 mph N/A   Scattered Clouds
4:53 PM 75.9 °F - 61.0 °F 60% 29.82 in 10.0 mi South 17.3 mph 28.8 mph N/A   Scattered Clouds
5:53 PM 75.9 °F - 60.1 °F 58% 29.82 in 10.0 mi South 18.4 mph 24.2 mph N/A   Mostly Cloudy
6:53 PM 75.0 °F - 61.0 °F 62% 29.80 in 10.0 mi SSE 12.7 mph - N/A   Partly Cloudy
7:53 PM 75.0 °F - 61.0 °F 62% 29.78 in 10.0 mi SSE 15.0 mph - N/A   Clear
8:53 PM 75.0 °F - 61.0 °F 62% 29.71 in 10.0 mi SSE 21.9 mph 28.8 mph N/A   Clear
9:53 PM 75.9 °F - 61.0 °F 60% 29.71 in 10.0 mi SSE 21.9 mph 33.4 mph N/A   Clear
10:53 PM 73.9 °F - 62.1 °F 66% 29.67 in 10.0 mi South 21.9 mph 34.5 mph N/A   Partly Cloudy
11:53 PM 73.9 °F - 64.0 °F 71% 29.68 in 9.0 mi South 19.6 mph 36.8 mph 0.00 in Rain Light Rain